Bloomington, IN

3:02 PM EDT on October 14, 2019 (GMT -0400)
Monroe County

Weather History for KBMG - September, 2019

Change the Weather History Date:

Sunday, September 22, 2019

  Actual Average Record
Temperature  
Mean Temperature 78 °F 63 °F  
Max Temperature 89 °F 76 °F 93 °F (2017)
Min Temperature 66 °F 50 °F 34 °F (1999)
Degree Days  
Heating Degree Days 0 4  
Month to date heating degree days 0 35  
Since 1 July heating degree days 0 42  
Cooling Degree Days 12 2  
Month to date cooling degree days 181 84  
Year to date cooling degree days 1153 901  
Growing Degree Days 28 (Base 50)    
Moisture  
Dew Point 58 °F    
Average Humidity 54    
Maximum Humidity 87    
Minimum Humidity 36    
Precipitation  
Precipitation 0.26 in 0.11 in 0.84 in (2003)
Month to date precipitation 1.14 2.38  
Year to date precipitation 37.36 35.57  
Sea Level Pressure  
Sea Level Pressure 30.03 in    
Wind  
Wind Speed 8 mph ()    
Max Wind Speed 21 mph    
Max Gust Speed 32 mph    
Visibility 9.7 miles    
Events Rain    
T = Trace of Precipitation, MM = Missing Value Source: Averaged Metar Reports

Daily Weather History Graph

Daily Weather History Graph

Search for Another Location

Airport or City:

Astronomy

Sep. 22, 2019 Rise Set
Actual Time 7:33 AM EDT 7:43 PM EDT
Civil Twilight 7:07 AM EDT 8:10 PM EDT
Nautical Twilight 6:35 AM EDT 8:41 PM EDT
Astronomical Twilight 6:04 AM EDT 9:13 PM EDT
Moon 12:25 AM EDT (9/22) 3:36 PM EDT (9/22)
Length of Visible Light 13h 03m
Length of Day
12h 09m
Last Quarter, 44% of the Moon is Illuminated
Sep 22
Last Quarter
Sep 28
New
Oct 5
First Quarter
Oct 13
Full
Oct 21
Last Quarter

Hourly Weather History & Observations

Time (EDT) Temp. Heat Index Dew Point Humidity Pressure Visibility Wind Dir Wind Speed Gust Speed Precip Events Conditions
12:53 AM 68.0 °F - 57.0 °F 68% 30.10 in 10.0 mi South 5.8 mph - N/A   Clear
1:53 AM 73.0 °F - 55.0 °F 53% 30.10 in 10.0 mi SSW 8.1 mph - N/A   Clear
2:53 AM 73.0 °F - 55.0 °F 53% 30.09 in 10.0 mi South 9.2 mph - N/A   Clear
3:53 AM 71.1 °F - 55.0 °F 57% 30.09 in 10.0 mi SSW 8.1 mph - N/A   Clear
4:53 AM 68.0 °F - 55.0 °F 63% 30.08 in 10.0 mi South 5.8 mph - N/A   Clear
5:53 AM 66.0 °F - 55.9 °F 70% 30.09 in 10.0 mi South 5.8 mph - N/A   Clear
6:53 AM 66.0 °F - 55.9 °F 70% 30.09 in 10.0 mi South 5.8 mph - N/A   Clear
7:53 AM 66.0 °F - 55.9 °F 70% 30.09 in 10.0 mi South 5.8 mph - N/A   Clear
8:53 AM 71.1 °F - 57.9 °F 63% 30.09 in 10.0 mi South 9.2 mph - N/A   Clear
9:53 AM 75.0 °F - 59.0 °F 57% 30.09 in 10.0 mi SSW 8.1 mph - N/A   Clear
10:53 AM 79.0 °F - 59.0 °F 50% 30.08 in 10.0 mi South 13.8 mph 18.4 mph N/A   Clear
11:53 AM 82.0 °F 82.0 °F 57.9 °F 44% 30.06 in 10.0 mi SSW 13.8 mph 25.3 mph N/A   Clear
12:53 PM 84.9 °F 84.2 °F 57.9 °F 40% 30.04 in 10.0 mi SSW 12.7 mph 24.2 mph N/A   Clear
1:53 PM 87.1 °F 86.7 °F 60.1 °F 40% 30.02 in 10.0 mi SW 15.0 mph 24.2 mph N/A   Partly Cloudy
2:53 PM 87.1 °F 86.5 °F 59.0 °F 39% 30.00 in 10.0 mi SSW 18.4 mph 25.3 mph N/A   Mostly Cloudy
3:53 PM 89.1 °F 88.2 °F 59.0 °F 36% 29.97 in 10.0 mi SW 9.2 mph 23.0 mph N/A   Partly Cloudy
4:53 PM 86.0 °F 85.4 °F 59.0 °F 40% 29.95 in 10.0 mi SSW 11.5 mph 24.2 mph N/A   Partly Cloudy
5:53 PM 84.9 °F 84.4 °F 59.0 °F 41% 29.94 in 10.0 mi South 10.4 mph 20.7 mph N/A   Partly Cloudy
6:53 PM 82.9 °F 82.8 °F 59.0 °F 44% 29.94 in 10.0 mi SSW 9.2 mph - N/A   Clear
7:53 PM 78.1 °F - 60.1 °F 54% 29.93 in 10.0 mi SSE 6.9 mph - N/A   Clear
8:53 PM 75.9 °F - 60.1 °F 58% 29.93 in 10.0 mi South 5.8 mph - N/A   Clear
9:53 PM 78.1 °F - 60.1 °F 54% 29.94 in 10.0 mi South 9.2 mph - N/A   Mostly Cloudy
10:53 PM 78.1 °F - 60.1 °F 54% 29.94 in 10.0 mi SSW 8.1 mph - N/A   Mostly Cloudy
11:53 PM 72.0 °F - 68.0 °F 87% 29.97 in 2.5 mi SW 9.2 mph - 0.08 in Rain Heavy Rain